Columbia / Mount Pleasant, TN

12:52 PM CDT on July 22, 2017 (GMT -0500)
Maury County

Weather History for KMRC - September, 2013

Change the Weather History Date:

Tuesday, September 17, 2013

  Actual Average (KBNA) Record (KBNA)
Temperature  
Mean Temperature 80 °F -  
Max Temperature 87 °F 82 °F 99 °F (1896)
Min Temperature 73 °F 61 °F 45 °F (1961)
Cooling Degree Days 15    
Growing Degree Days 30 (Base 50)    
Moisture  
Dew Point 69 °F    
Average Humidity 69    
Maximum Humidity 100    
Minimum Humidity 46    
Precipitation  
Precipitation 0.00 in - - ()
Sea Level Pressure  
Sea Level Pressure 30.13 in    
Wind  
Wind Speed 1 mph (ENE)    
Max Wind Speed 8 mph    
Max Gust Speed -    
Visibility 9 miles    
Events      
Averages and records for this station are not official NWS values.
T = Trace of Precipitation, MM = Missing Value Source: NWS Daily Summary

Daily Weather History Graph

Daily Weather History Graph

Search for Another Location

Airport or City:

Trip Planner

Search our weather history database for the weather conditions in past years. The results will help you decide how hot, cold, wet, or windy it might be!

Date:

Astronomy

Sep. 17, 2013 Rise Set
Actual Time 6:33 AM CDT 6:52 PM CDT
Civil Twilight 6:07 AM CDT 7:17 PM CDT
Nautical Twilight 5:37 AM CDT 7:47 PM CDT
Astronomical Twilight 5:07 AM CDT 8:18 PM CDT
Moon 5:37 PM CDT (9/17) 4:30 AM CDT (9/17)
Length of Visible Light 13h 10m
Length of Day
12h 19m
Waxing Gibbous, 96% of the Moon is Illuminated
Sep 17
Waxing Gibbous
Sep 19
Full
Sep 26
Last Quarter
Oct 4
New
Oct 11
First Quarter

Hourly Weather History & Observations

Time (CDT) Temp. Heat Index Dew Point Humidity Pressure Visibility Wind Dir Wind Speed Gust Speed Precip Events Conditions
12:35 AM - - - N/A% 30.16 in 10.0 mi Calm Calm - N/A   Clear
12:55 AM - - - N/A% 30.16 in 9.0 mi Calm Calm - N/A   Clear
1:15 AM - - - N/A% 30.15 in 10.0 mi Calm Calm - N/A   Clear
1:35 AM - - - N/A% 30.15 in 9.0 mi Calm Calm - N/A   Clear
1:55 AM - - - N/A% 30.15 in 9.0 mi Calm Calm - N/A   Scattered Clouds
2:15 AM - - - N/A% 30.15 in 10.0 mi Calm Calm - N/A   Scattered Clouds
2:35 AM - - - N/A% 30.15 in 9.0 mi Calm Calm - N/A   Clear
2:55 AM - - - N/A% 30.14 in 8.0 mi Calm Calm - N/A   Clear
3:15 AM - - - N/A% 30.14 in 7.0 mi Calm Calm - N/A   Clear
3:35 AM - - - N/A% 30.14 in 8.0 mi Calm Calm - N/A   Clear
3:55 AM - - - N/A% 30.14 in 9.0 mi Calm Calm - N/A   Clear
4:15 AM - - - N/A% 30.14 in 5.0 mi Calm Calm - N/A   Clear
4:35 AM - - - N/A% 30.14 in 4.0 mi Calm Calm - N/A   Clear
4:55 AM - - - N/A% 30.14 in 4.0 mi Calm Calm - N/A   Clear
5:15 AM - - - N/A% 30.14 in 4.0 mi Calm Calm - N/A   Clear
5:35 AM - - - N/A% 30.15 in 6.0 mi Calm Calm - N/A   Clear
5:55 AM - - - N/A% 30.16 in 7.0 mi Calm Calm - N/A   Clear
6:15 AM - - - N/A% 30.16 in 5.0 mi Calm Calm - N/A   Clear
6:35 AM - - - N/A% 30.17 in 5.0 mi Calm Calm - N/A   Clear
6:55 AM - - - N/A% 30.17 in 8.0 mi Calm Calm - N/A   Clear
7:15 AM - - - N/A% 30.18 in 6.0 mi Calm Calm - N/A   Clear
7:35 AM - - - N/A% 30.18 in 7.0 mi Calm Calm - N/A   Clear
7:55 AM - - - N/A% 30.18 in 10.0 mi Calm Calm - N/A   Clear
8:15 AM - - - N/A% 30.18 in 9.0 mi Calm Calm - N/A   Clear
8:35 AM - - - N/A% 30.18 in 10.0 mi ENE 3.5 mph - N/A   Clear
8:55 AM - - - N/A% 30.19 in 10.0 mi ENE 4.6 mph - N/A   Mostly Cloudy
9:15 AM - - - N/A% 30.19 in 10.0 mi ENE 5.8 mph - N/A   Scattered Clouds
9:35 AM - - - N/A% 30.19 in 10.0 mi Calm Calm - N/A   Unknown
9:55 AM 73.4 °F - 73.4 °F 100% 30.18 in 10.0 mi Variable 3.5 mph - N/A   Unknown
10:15 AM 73.4 °F - 73.4 °F 100% 30.18 in 10.0 mi Calm Calm - N/A   Mostly Cloudy
10:35 AM 73.4 °F - 73.4 °F 100% 30.18 in 10.0 mi Calm Calm - N/A   Unknown
10:55 AM 77.0 °F - 75.2 °F 94% 30.18 in 9.0 mi North 3.5 mph - N/A   Partly Cloudy
11:15 AM 78.8 °F - 73.4 °F 83% 30.17 in 10.0 mi Calm Calm - N/A   Clear
11:35 AM 80.6 °F 84.6 °F 71.6 °F 74% 30.17 in 10.0 mi Calm Calm - N/A   Clear
11:55 AM 82.4 °F 86.3 °F 69.8 °F 66% 30.16 in 10.0 mi SSE 5.8 mph - N/A   Clear
12:15 PM 82.4 °F 84.6 °F 66.2 °F 58% 30.16 in 10.0 mi Calm Calm - N/A   Clear
12:35 PM 84.2 °F 85.6 °F 64.4 °F 51% 30.15 in 10.0 mi Variable 3.5 mph - N/A   Clear
12:55 PM 84.2 °F 85.6 °F 64.4 °F 51% 30.14 in 10.0 mi Calm Calm - N/A   Clear
1:15 PM 86.0 °F 88.2 °F 66.2 °F 51% 30.14 in 10.0 mi Variable 4.6 mph - N/A   Clear
1:35 PM 86.0 °F 88.2 °F 66.2 °F 51% 30.13 in 10.0 mi SSW 5.8 mph - N/A   Scattered Clouds
1:55 PM 87.8 °F 89.4 °F 64.4 °F 46% 30.12 in 10.0 mi Variable 4.6 mph - N/A   Partly Cloudy
2:15 PM 87.8 °F 89.4 °F 64.4 °F 46% 30.11 in 10.0 mi South 3.5 mph - N/A   Clear
2:35 PM 84.2 °F 85.6 °F 64.4 °F 51% 30.11 in 10.0 mi Variable 3.5 mph - N/A   Clear
2:55 PM 86.0 °F 88.2 °F 66.2 °F 51% 30.10 in 10.0 mi Calm Calm - N/A   Clear
3:15 PM 86.0 °F 87.3 °F 64.4 °F 48% 30.10 in 10.0 mi Calm Calm - N/A   Clear
3:35 PM 87.8 °F 89.4 °F 64.4 °F 46% 30.09 in 10.0 mi Calm Calm - N/A   Clear
3:55 PM 87.8 °F 89.4 °F 64.4 °F 46% 30.09 in 10.0 mi Calm Calm - N/A   Partly Cloudy
4:15 PM 87.8 °F 89.4 °F 64.4 °F 46% 30.09 in 10.0 mi Calm Calm - N/A   Partly Cloudy
4:35 PM 87.8 °F 90.4 °F 66.2 °F 49% 30.08 in 10.0 mi NE 4.6 mph - N/A   Partly Cloudy
4:55 PM 86.0 °F 88.2 °F 66.2 °F 51% 30.08 in 10.0 mi NE 8.1 mph - N/A   Partly Cloudy
5:15 PM 84.2 °F 87.3 °F 68.0 °F 58% 30.08 in 10.0 mi NNE 6.9 mph - N/A   Partly Cloudy
5:35 PM 84.2 °F 86.6 °F 66.2 °F 55% 30.08 in 10.0 mi NE 5.8 mph - N/A   Clear
5:55 PM 82.4 °F 85.4 °F 68.0 °F 62% 30.08 in 10.0 mi NE 4.6 mph - N/A   Clear
6:15 PM 80.6 °F 84.6 °F 71.6 °F 74% 30.08 in 10.0 mi Calm Calm - N/A   Clear
6:35 PM 75.2 °F - 75.2 °F 100% 30.08 in 10.0 mi East 3.5 mph - N/A   Clear
6:55 PM 75.2 °F - 75.2 °F 100% 30.08 in 10.0 mi Calm Calm - N/A   Clear
7:15 PM 75.2 °F - 75.2 °F 100% 30.08 in 10.0 mi Calm Calm - N/A   Clear
7:35 PM 73.4 °F - 73.4 °F 100% 30.08 in 10.0 mi Calm Calm - N/A   Clear
7:55 PM 73.4 °F - 73.4 °F 100% 30.09 in 10.0 mi Calm Calm - N/A   Unknown
8:15 PM 73.4 °F - 73.4 °F 100% 30.10 in 10.0 mi Calm Calm - N/A   Unknown
8:35 PM - - - N/A% 30.10 in 10.0 mi Calm Calm - N/A   Unknown
8:55 PM - - - N/A% 30.10 in 10.0 mi Calm Calm - N/A   Unknown
9:15 PM - - - N/A% 30.11 in 10.0 mi Calm Calm - N/A   Mostly Cloudy
9:35 PM - - - N/A% 30.11 in 10.0 mi Calm Calm - N/A   Partly Cloudy
9:55 PM - - - N/A% 30.12 in 10.0 mi Calm Calm - N/A   Scattered Clouds
10:15 PM - - - N/A% 30.12 in 10.0 mi Calm Calm - N/A   Scattered Clouds
10:35 PM - - - N/A% 30.12 in 10.0 mi SSE 3.5 mph - N/A   Clear
10:55 PM - - - N/A% 30.12 in 10.0 mi Calm Calm - N/A   Unknown
11:15 PM - - - N/A% 30.12 in 10.0 mi Calm Calm - N/A   Unknown
11:35 PM - - - N/A% 30.11 in 10.0 mi Calm Calm - N/A   Unknown
11:55 PM - - - N/A% 30.11 in 10.0 mi Calm Calm - N/A   Unknown